Welcome to the New NWS' Forecast!
Most changes are behind the scenes, but click here for differences you might notice.

Regional Weather Roundup (RWR)

Issued by National Weather Service (NWS)

                            
399 
ASUS46 KSTO 150504
RWRCA 

NORTHERN AND CENTRAL CA REGIONAL WEATHER ROUNDUP
NATIONAL WEATHER SERVICE SACRAMENTO CA 
1000 PM PDT TUE AUG 14 2018

NOTE: FAIR INDICATES FEW OR NO CLOUDS BELOW 12,000 FEET WITH NO
SIGNIFICANT WEATHER AND/OR OBSTRUCTIONS TO VISIBILITY.

CAZ001-003-150600-
NORTHWEST AREA
  
CITY           SKY/WX    TMP DP  RH WIND       PRES   REMARKS
CRESCENT CITY  CLOUDY    57  56  96 S3        29.95R                  
UKIAH          PTCLDY    67  52  58 CALM      29.88R                  
$$

CAZ006-505>513-150600-
BAY AREA
  
CITY           SKY/WX    TMP DP  RH WIND       PRES   REMARKS
SANTA ROSA     CLEAR     58  54  86 SE6       29.87R                  
SAN RAFAEL     N/A       62  MM  MM MISG
NAPA           CLEAR     60  55  83 SW7       29.89R                  
CONCORD        PTCLDY    63  55  75 SW8       29.89R                  
OAKLAND CITY   N/A       MM  MM  MM MISG
OAKLAND        CLOUDY    62  57  83 W15       29.92R                  
SAN FRAN CITY  N/A       59  MM  92 MISG
SAN FRAN ARPT  CLOUDY    61  55  81 W14       29.91S                  
LIVERMORE      CLOUDY    60  55  83 W10       29.91R                  
HAYWARD        CLOUDY    64  56  75 W13       29.92R                  
REDWOOD CITY   N/A       MM  MM  MM MISG
MOFFETT ARPT   CLEAR     61  56  83 NW6       29.93R                  
SAN JOSE ARPT  MOCLDY    63  57  81 N9        29.92R                  
$$
CAZ034-037-514>518-150600-
CENTRAL COAST
  
CITY           SKY/WX    TMP DP  RH WIND       PRES   REMARKS
WATSONVILLE    MOCLDY    58  55  90 SE3       29.92R                  
SALINAS        CLEAR     61  56  83 NW7       29.91R                  
MONTEREY       MOCLDY    60  56  86 S7        29.93R                  
SAN LUIS OBISP CLEAR     60  56  86 NW8       29.90R                  
SANTA MARIA    PTCLDY    61  58  90 NW6       29.91R                  
$$
CAZ015-016-150600-
NORTHERN SACRAMENTO VALLEY
  
CITY           SKY/WX    TMP DP  RH WIND       PRES   REMARKS
REDDING        PTCLDY    80  54  40 CALM      29.81R                  
RED BLUFF      CLEAR     80  54  40 CALM      29.81R                  
$$
CAZ016>018-150600-
SOUTHERN SACRAMENTO VALLEY
  
CITY           SKY/WX    TMP DP  RH WIND       PRES   REMARKS
AUBURN         PTCLDY    73  48  40 SE5       29.89R                  
LINCOLN        FAIR      72  55  56 SE13      29.82R                  
MARYSVILLE     CLEAR     69  58  67 SE10      29.81R                  
SAC INTL ARPT  CLEAR     65  55  70 S13       29.81R                  
MATHER AIRPORT CLEAR     64  55  72 S9        29.83R                  
DOWNTOWN SAC   N/A       66  MM  MM MISG
SAC EXEC ARPT  CLEAR     65  56  72 S9        29.83R                  
TRAVIS AFB     CLEAR     61  55  81 SW28G37   29.81R                  
$$
CAZ019>021-150600-
SAN JOAQUIN VALLEY
  
CITY           SKY/WX    TMP DP  RH WIND       PRES   REMARKS
STOCKTON       CLEAR     67  56  67 NW9       29.85R                  
MODESTO        CLEAR     72  53  51 N9        29.83R                  
MERCED         CLEAR     74  56  53 NW10      29.82R                  
LEMOORE        PTCLDY    81  53  37 NW13      29.81R                  
FRESNO         CLEAR     84  53  34 NW14      29.81R                  
HANFORD        CLEAR     83  54  36 NW10      29.81R                  
PORTERVILLE    PTCLDY    81  54  39 NW8       29.82R                  
BAKERSFIELD    CLEAR     87  44  22 N7        29.81R                  
$$
CAZ011-012-071-150600-
NORTHERN MOUNTAINS
  
CITY           SKY/WX    TMP DP  RH WIND       PRES   REMARKS
YREKA          CLOUDY    76  45  33 N6        29.91R HAZE             
MOUNT SHASTA   CLOUDY    66  37  34 CALM      29.99R                  
ALTURAS        PTCLDY    78  29  16 W10       30.01R                  
$$
CAZ011-012-071-150600-
SIERRA NEVADA MTNS
  
CITY           SKY/WX    TMP DP  RH WIND       PRES   REMARKS
BLUE CANYON    PTCLDY    66  40  38 CALM      30.13R                  
TRUCKEE        MOCLDY    59  54  82 SW5       30.15S                  
TAHOE VLY ARPT MOCLDY    60  47  61 CALM      30.18R                  
MAMMOTH LAKES  FAIR      63  38  40 W7        30.27R                  
$$